TimeCDT,TemperatureF,Dew PointF,Humidity,Sea Level PressureIn,VisibilityMPH,Wind Direction,Wind SpeedMPH,Gust SpeedMPH,PrecipitationIn,Events,Conditions,WindDirDegrees,DateUTC
12:08 AM,55.4,55.4,100,29.97,5.0,Calm,Calm,-,N/A,,Clear,0,2013-04-01 05:08:00
12:38 AM,55.4,55.4,100,29.97,10.0,Calm,Calm,-,N/A,,Clear,0,2013-04-01 05:38:00
12:58 AM,54.3,54.3,100,29.98,10.0,Calm,Calm,-,N/A,,Clear,0,2013-04-01 05:58:00
1:58 AM,51.8,51.8,100,29.99,10.0,SSE,3.5,-,N/A,,Clear,150,2013-04-01 06:58:00
2:58 AM,51.4,51.4,100,30.00,10.0,NE,1.2,-,N/A,,Clear,50,2013-04-01 07:58:00
3:28 AM,51.8,51.8,100,29.99,5.0,ENE,2.3,-,N/A,,Clear,70,2013-04-01 08:28:00
3:48 AM,50.0,50.0,100,29.99,3.0,Calm,Calm,-,N/A,,Clear,0,2013-04-01 08:48:00
3:58 AM,51.1,51.1,100,30.01,1.0,Calm,Calm,-,N/A,,Clear,0,2013-04-01 08:58:00
4:08 AM,50.0,50.0,100,30.00,5.0,Calm,Calm,-,N/A,,Clear,0,2013-04-01 09:08:00
4:38 AM,50.0,50.0,100,30.00,0.5,Calm,Calm,-,N/A,Fog,Fog,0,2013-04-01 09:38:00
4:58 AM,50.5,50.5,100,30.02,7.0,North,3.5,-,N/A,,Partly Cloudy,350,2013-04-01 09:58:00
5:28 AM,50.0,50.0,100,30.01,0.5,Calm,Calm,-,N/A,Fog,Fog,0,2013-04-01 10:28:00
5:58 AM,50.0,50.0,100,30.03,0.5,NNW,3.5,-,N/A,Fog,Fog,340,2013-04-01 10:58:00
6:38 AM,50.0,50.0,100,30.03,1.0,East,2.3,-,N/A,,Clear,80,2013-04-01 11:38:00
6:58 AM,49.5,49.5,100,30.05,0.5,SE,2.3,-,N/A,Fog,Fog,140,2013-04-01 11:58:00
7:18 AM,48.2,48.2,100,30.05,0.2,SSE,3.5,-,N/A,Fog,Fog,160,2013-04-01 12:18:00
7:38 AM,48.2,48.2,100,30.06,0.2,SE,2.3,-,N/A,Fog,Fog,140,2013-04-01 12:38:00
7:48 AM,50.0,50.0,100,30.06,0.5,SSE,3.5,-,N/A,Fog,Fog,150,2013-04-01 12:48:00
7:58 AM,50.4,50.4,100,30.07,0.5,SE,1.2,-,N/A,Fog,Fog,130,2013-04-01 12:58:00
8:08 AM,50.0,50.0,100,30.07,0.8,SSE,2.3,-,N/A,,Clear,150,2013-04-01 13:08:00
8:17 AM,51.8,51.8,100,30.07,1.2,SSE,1.2,-,N/A,,Clear,160,2013-04-01 13:17:00
8:39 AM,-9999,-9999,N/A,30.08,2.0,SE,3.5,-,N/A,,Scattered Clouds,140,2013-04-01 13:39:00
8:55 AM,60.8,53.6,77,30.09,2.0,SE,3.5,-,N/A,,Scattered Clouds,140,2013-04-01 13:55:00
9:05 AM,59.0,50.0,72,30.08,0.8,SE,2.3,-,N/A,,Mostly Cloudy,140,2013-04-01 14:05:00
9:36 AM,60.8,55.4,82,30.08,1.0,South,5.8,-,N/A,,Scattered Clouds,170,2013-04-01 14:36:00
9:41 AM,60.8,55.4,82,30.08,1.5,South,6.9,-,N/A,,Partly Cloudy,170,2013-04-01 14:41:00
9:55 AM,62.6,57.2,82,30.09,3.0,South,4.6,-,N/A,,Partly Cloudy,180,2013-04-01 14:55:00
10:55 AM,68.0,57.2,68,30.10,10.0,SSW,3.5,-,N/A,,Partly Cloudy,200,2013-04-01 15:55:00
11:58 AM,70.3,56.3,61,30.10,10.0,Variable,2.3,-,N/A,,Partly Cloudy,0,2013-04-01 16:58:00
12:58 PM,72.7,52.3,49,30.09,10.0,SE,3.5,-,N/A,,Partly Cloudy,130,2013-04-01 17:58:00
1:58 PM,73.8,53.2,49,30.07,10.0,SSW,8.1,-,N/A,,Clear,200,2013-04-01 18:58:00
2:58 PM,75.2,51.6,44,30.05,10.0,SSW,8.1,-,N/A,,Clear,210,2013-04-01 19:58:00
3:58 PM,75.9,49.3,39,30.03,3.0,SW,5.8,-,N/A,,Haze,230,2013-04-01 20:58:00
4:58 PM,76.6,49.5,38,30.02,10.0,Variable,4.6,-,N/A,,Clear,0,2013-04-01 21:58:00
5:58 PM,75.4,48.7,39,30.01,10.0,Calm,Calm,-,N/A,,Clear,0,2013-04-01 22:58:00
6:58 PM,73.4,53.4,49,30.00,10.0,South,5.8,-,N/A,,Clear,170,2013-04-01 23:58:00
7:58 PM,68.9,51.4,54,30.00,10.0,SE,3.5,-,N/A,,Clear,130,2013-04-02 00:58:00
8:58 PM,63.1,52.5,68,30.00,10.0,Calm,Calm,-,0.00,,Clear,360,2013-04-02 01:58:00
9:58 PM,57.7,53.2,85,30.02,10.0,SE,2.3,-,N/A,,Clear,130,2013-04-02 02:58:00
10:58 PM,57.9,51.1,78,30.04,10.0,SSE,5.8,-,N/A,,Clear,160,2013-04-02 03:58:00
11:58 PM,58.8,47.8,67,30.05,10.0,ESE,3.5,-,N/A,,Clear,120,2013-04-02 04:58:00